Cosmos 1508 Rocket - Orbit

View from above orbital plane
View from above orbital plane
View from above satellite
View from above satellite

Ground track
Ground track

The orbit data is extracted from the following two-line orbital elements,

1 14484U 83111B   13139.16355948  .00029879  00000-0  67742-3 0  2114
2 14484 082.8306 341.9984 0304705 216.4740 285.8113 15.06446722512802
Epoch (UTC): 19 May 2013 03:55:31
Eccentricity: 0.0304705
inclination: 82.8306°
perigee height: 336 km
apogee height: 758 km
right ascension of ascending node: 341.9984°
argument of perigee: 216.4740°
revolutions per day: 15.06446722
mean anomaly at epoch: 285.8113°
orbit number at epoch: 51280

The dashed part of the orbit path shows where the satellite is in the earth's shadow,  

Developed and maintained by Chris Peat, Heavens-Above GmbH. Please read the updated FAQ before sending e-mail. Imprint. DLR